• In Germany
  • List of Countries
  • For 7 days
  • Water Temperature
  • Satellite Maps
  • Weather Map
  • Weather Widgets
  • user-avatar
    Login

    Hourly Weather Mayrhofen

    Today, 30 May, Tuesday

    Time Temperature Precipitation Wind Pressure Humidity
    00:00 +9°C° 0.2 mm 1 mps 617 mmHg 91%
    01:00 +9°C° 0.2 mm 1 mps 618 mmHg 91%
    02:00 +8°C° 0.1 mm 1 mps 617 mmHg 91%
    03:00 +8°C° 0.1 mm 1 mps 617 mmHg 91%
    04:00 +7°C° 0.1 mm 1 mps 617 mmHg 91%
    05:00 +10°C° 0.2 mm 1 mps 618 mmHg 88%
    06:00 +12°C° 0.2 mm 1 mps 619 mmHg 84%
    07:00 +13°C° 0.2 mm 0 mps 620 mmHg 80%
    08:00 +15°C° 0.3 mm 0 mps 621 mmHg 74%
    09:00 +16°C° 0.3 mm 0 mps 621 mmHg 67%
    10:00 +20°C° 0.3 mm 1 mps 622 mmHg 61%
    11:00 +20°C° 0.9 mm 1 mps 622 mmHg 62%
    12:00 +20°C° 0.9 mm 1 mps 622 mmHg 64%
    13:00 +20°C° 0.9 mm 1 mps 622 mmHg 65%
    14:00 +20°C° 1.6 mm 1 mps 621 mmHg 68%
    15:00 +19°C° 1.6 mm 1 mps 621 mmHg 72%
    16:00 +19°C° 1.6 mm 1 mps 621 mmHg 75%
    17:00 +16°C° 1.3 mm 1 mps 621 mmHg 81%
    18:00 +15°C° 1.3 mm 1 mps 620 mmHg 87%
    19:00 +13°C° 1.3 mm 0 mps 620 mmHg 93%
    20:00 +12°C° 1.2 mm 0 mps 620 mmHg 94%
    21:00 +11°C° 1.2 mm 1 mps 620 mmHg 95%
    22:00 +10°C° 1.2 mm 1 mps 620 mmHg 97%
    23:00 +10°C° 0.7 mm 1 mps 620 mmHg 97%

    Tomorrow, 31 May, Wednesday

    Time Temperature Precipitation Wind Pressure Humidity
    00:00 +10°C° 0.7 mm 1 mps 620 mmHg 97%
    01:00 +10°C° 0.7 mm 1 mps 620 mmHg 97%
    02:00 +9°C° 0.1 mm 1 mps 620 mmHg 97%
    03:00 +9°C° 0.1 mm 1 mps 620 mmHg 97%
    04:00 +8°C° 0.1 mm 1 mps 619 mmHg 97%
    05:00 +10°C° 0 mm 1 mps 620 mmHg 94%
    06:00 +11°C° 0 mm 1 mps 621 mmHg 92%
    07:00 +12°C° 0 mm 0 mps 622 mmHg 90%
    08:00 +13°C° 0.2 mm 0 mps 622 mmHg 83%
    09:00 +15°C° 0.2 mm 0 mps 623 mmHg 77%
    10:00 +18°C° 0.2 mm 1 mps 623 mmHg 71%
    11:00 +19°C° 0.8 mm 1 mps 623 mmHg 71%
    12:00 +19°C° 0.8 mm 1 mps 623 mmHg 72%
    13:00 +19°C° 0.8 mm 1 mps 623 mmHg 72%
    14:00 +19°C° 1 mm 1 mps 623 mmHg 73%
    15:00 +18°C° 1 mm 1 mps 623 mmHg 75%
    16:00 +18°C° 1 mm 1 mps 622 mmHg 76%
    17:00 +16°C° 1 mm 1 mps 622 mmHg 81%
    18:00 +15°C° 1 mm 1 mps 622 mmHg 86%
    19:00 +13°C° 1 mm 0 mps 621 mmHg 92%
    20:00 +11°C° 1.2 mm 0 mps 621 mmHg 94%
    21:00 +10°C° 1.2 mm 0 mps 620 mmHg 96%
    22:00 +8°C° 1.2 mm 0 mps 620 mmHg 98%
    23:00 +8°C° 0.7 mm 0 mps 620 mmHg 98%

    Day after tomorrow, 1 June, Thursday

    Time Temperature Precipitation Wind Pressure Humidity
    00:00 +8°C° 0.7 mm 0 mps 620 mmHg 98%
    01:00 +7°C° 0.7 mm 0 mps 620 mmHg 98%
    02:00 +7°C° 0.3 mm 0 mps 620 mmHg 98%
    03:00 +7°C° 0.3 mm 0 mps 619 mmHg 98%
    04:00 +6°C° 0.3 mm 0 mps 619 mmHg 99%
    05:00 +8°C° 0.3 mm 0 mps 620 mmHg 96%
    06:00 +10°C° 0.3 mm 0 mps 621 mmHg 93%
    07:00 +11°C° 0.3 mm 0 mps 622 mmHg 91%
    08:00 +12°C° 0.3 mm 0 mps 622 mmHg 85%
    09:00 +13°C° 0.3 mm 0 mps 623 mmHg 80%
    10:00 +16°C° 0.3 mm 1 mps 623 mmHg 74%
    11:00 +16°C° 0.4 mm 1 mps 623 mmHg 73%
    12:00 +18°C° 0.4 mm 1 mps 623 mmHg 71%
    13:00 +18°C° 0.4 mm 1 mps 623 mmHg 69%
    14:00 +18°C° 0.8 mm 1 mps 623 mmHg 71%
    15:00 +18°C° 0.8 mm 1 mps 623 mmHg 72%
    16:00 +16°C° 0.8 mm 1 mps 622 mmHg 74%
    17:00 +15°C° 0.7 mm 1 mps 622 mmHg 79%
    18:00 +14°C° 0.7 mm 1 mps 622 mmHg 85%
    19:00 +12°C° 0.7 mm 0 mps 621 mmHg 91%
    20:00 +12°C° 0.4 mm 1 mps 621 mmHg 93%
    21:00 +10°C° 0.4 mm 1 mps 620 mmHg 95%
    22:00 +8°C° 0.4 mm 1 mps 620 mmHg 97%
    23:00 +8°C° 0.2 mm 1 mps 620 mmHg 97%

    2 June, Friday

    Time Temperature Precipitation Wind Pressure Humidity
    00:00 +8°C° 0.2 mm 1 mps 620 mmHg 97%
    01:00 +8°C° 0.2 mm 1 mps 620 mmHg 97%
    02:00 +8°C° 0.2 mm 1 mps 620 mmHg 96%
    03:00 +8°C° 0.2 mm 1 mps 619 mmHg 96%
    04:00 +7°C° 0.2 mm 1 mps 619 mmHg 96%
    05:00 +9°C° 0.1 mm 1 mps 620 mmHg 92%
    06:00 +10°C° 0.1 mm 1 mps 621 mmHg 88%
    07:00 +12°C° 0.1 mm 1 mps 621 mmHg 84%
    08:00 +14°C° 0 mm 1 mps 622 mmHg 73%
    09:00 +16°C° 0 mm 1 mps 623 mmHg 62%
    10:00 +19°C° 0 mm 1 mps 623 mmHg 52%
    11:00 +19°C° 0.2 mm 1 mps 623 mmHg 52%
    12:00 +20°C° 0.2 mm 1 mps 623 mmHg 52%
    13:00 +19°C° 0.2 mm 2 mps 623 mmHg 53%
    14:00 +19°C° 0.8 mm 2 mps 623 mmHg 57%
    15:00 +19°C° 0.8 mm 1 mps 622 mmHg 62%
    16:00 +19°C° 0.8 mm 1 mps 622 mmHg 66%
    17:00 +18°C° 0.7 mm 1 mps 621 mmHg 74%
    18:00 +15°C° 0.7 mm 1 mps 621 mmHg 81%
    19:00 +13°C° 0.7 mm 0 mps 620 mmHg 89%
    20:00 +11°C° 0.3 mm 0 mps 620 mmHg 91%
    21:00 +10°C° 0.3 mm 1 mps 619 mmHg 93%
    22:00 +8°C° 0.3 mm 1 mps 618 mmHg 95%
    23:00 +8°C° 0.1 mm 1 mps 618 mmHg 95%

    3 June, Saturday

    Time Temperature Precipitation Wind Pressure Humidity
    00:00 +8°C° 0.1 mm 1 mps 618 mmHg 95%
    01:00 +8°C° 0.1 mm 1 mps 618 mmHg 95%
    02:00 +7°C° 0 mm 1 mps 618 mmHg 95%
    03:00 +7°C° 0 mm 1 mps 618 mmHg 95%
    04:00 +6°C° 0 mm 1 mps 617 mmHg 95%
    05:00 +9°C° 0 mm 1 mps 618 mmHg 90%
    06:00 +10°C° 0 mm 0 mps 619 mmHg 86%
    07:00 +12°C° 0 mm 0 mps 620 mmHg 82%
    08:00 +14°C° 0.1 mm 0 mps 621 mmHg 73%
    09:00 +16°C° 0.1 mm 0 mps 622 mmHg 64%
    10:00 +20°C° 0.1 mm 1 mps 623 mmHg 55%
    11:00 +20°C° 0.5 mm 1 mps 622 mmHg 57%
    12:00 +20°C° 0.5 mm 1 mps 622 mmHg 59%
    13:00 +20°C° 0.5 mm 1 mps 622 mmHg 62%
    14:00 +20°C° 0.9 mm 1 mps 622 mmHg 64%
    15:00 +20°C° 0.9 mm 1 mps 621 mmHg 67%
    16:00 +19°C° 0.9 mm 1 mps 621 mmHg 70%
    17:00 +18°C° 1 mm 1 mps 621 mmHg 76%
    18:00 +15°C° 1 mm 0 mps 620 mmHg 83%
    19:00 +14°C° 1 mm 0 mps 620 mmHg 89%
    20:00 +12°C° 0.5 mm 0 mps 620 mmHg 91%
    21:00 +10°C° 0.5 mm 0 mps 619 mmHg 93%
    22:00 +8°C° 0.5 mm 0 mps 619 mmHg 95%
    23:00 +8°C° 0.3 mm 0 mps 619 mmHg 95%

    4 June, Sunday

    Time Temperature Precipitation Wind Pressure Humidity
    00:00 +8°C° 0.3 mm 0 mps 618 mmHg 95%
    01:00 +7°C° 0.3 mm 0 mps 618 mmHg 95%
    02:00 +7°C° 0.1 mm 0 mps 618 mmHg 96%
    03:00 +6°C° 0.1 mm 0 mps 618 mmHg 96%
    04:00 +6°C° 0.1 mm 0 mps 618 mmHg 96%
    05:00 +8°C° 0.1 mm 0 mps 619 mmHg 94%
    06:00 +10°C° 0.1 mm 0 mps 620 mmHg 92%
    07:00 +13°C° 0.1 mm 1 mps 621 mmHg 89%
    08:00 +14°C° 0.4 mm 1 mps 621 mmHg 85%
    09:00 +15°C° 0.4 mm 1 mps 622 mmHg 81%
    10:00 +16°C° 0.4 mm 1 mps 622 mmHg 77%
    11:00 +16°C° 0.8 mm 1 mps 622 mmHg 77%
    12:00 +16°C° 0.8 mm 1 mps 622 mmHg 78%
    13:00 +16°C° 0.8 mm 1 mps 622 mmHg 78%
    14:00 +16°C° 1 mm 1 mps 622 mmHg 80%
    15:00 +15°C° 1 mm 1 mps 621 mmHg 82%
    16:00 +15°C° 1 mm 1 mps 621 mmHg 85%
    17:00 +14°C° 0.9 mm 1 mps 621 mmHg 88%
    18:00 +13°C° 0.9 mm 1 mps 621 mmHg 91%
    19:00 +13°C° 0.9 mm 1 mps 620 mmHg 95%
    20:00 +12°C° 0.7 mm 1 mps 620 mmHg 96%
    21:00 +10°C° 0.7 mm 0 mps 620 mmHg 96%
    22:00 +9°C° 0.7 mm 0 mps 620 mmHg 97%
    23:00 +9°C° 0.9 mm 0 mps 620 mmHg 97%
    Show more